This demonstration page uses our WeatherBlox Daily Observations layout. Learn more.

Left ArrowRight Arrow

Hourly Observations for September 2, 2015

Temp ( °F °C ) Dew Point ( °F °C ) Humidity (%) Winds ( mph kmh ) Pressure ( in mb ) Visibility ( mi km ) Precip ( " mm )
12:59 am 00:59 Partly Cloudy 75 23.9 71 21.7 88 88 SSW 3 6 30.06 1018 10 16 0.00 0.00
1:59 am 01:59 Partly Cloudy 74 23.3 71 21.7 91 91 S 5 7 30.06 1018 10 16 0.00 0.00
2:59 am 02:59 Mostly Clear 74 23.3 71 21.7 91 91 S 5 7 30.05 1018 10 16 0.00 0.00
3:59 am 03:59 Partly Cloudy 74 23.3 71 21.7 91 91 S 3 6 30.05 1018 9 14 0.00 0.00
4:59 am 04:59 Partly Cloudy 74 23.3 71 21.7 91 91 WSW 5 7 30.05 1018 9 14 0.00 0.00
5:59 am 05:59 Mostly Cloudy 72 22.2 70 21.1 94 94 SW 5 7 30.05 1018 9 14 0.00 0.00
6:59 am 06:59 Partly Cloudy 73 22.8 71 21.7 94 94 SSW 3 6 30.06 1018 7 11 0.00 0.00
7:59 am 07:59 Mostly Cloudy 77 25 72 22.2 85 85 WSW 3 6 30.07 1018 8 13 0.00 0.00
8:59 am 08:59 Mostly Cloudy 80 26.7 72 22.2 76 76 W 5 7 30.06 1018 8 13 0.00 0.00
9:59 am 09:59 Mostly Cloudy 82 27.8 70 21.1 67 67 W 6 9 30.05 1018 8 13 0.00 0.00
10:59 am 10:59 Mostly Cloudy 86 30 69 20.6 57 57 WSW 5 7 30.05 1018 8 13 0.00 0.00
11:59 am 11:59 Partly Cloudy 89 31.7 68 20 50 50 VRB 5 7 30.04 1017 9 14 0.00 0.00
12:59 pm 12:59 Partly Cloudy 91 32.8 67 19.4 45 45 W 6 9 30.02 1017 8 13 0.00 0.00
1:59 pm 13:59 Mostly Cloudy 93 33.9 67 19.4 42 42 NW 5 7 30.00 1016 7 11 0.00 0.00
2:59 pm 14:59 Mostly Cloudy 92 33.3 66 18.9 43 43 N 3 6 29.98 1015 7 11 0.00 0.00
3:59 pm 15:59 Cloudy 88 31.1 69 20.6 54 54 ENE 8 13 29.96 1015 7 11 0.00 0.00
4:50 pm 16:50 Cloudy with Thunderstorms 89 31.7 71 21.7 55 55 E 6 9 29.94 1014 7 11 0.00 0.00
4:59 pm 16:59 Cloudy with Thunderstorms 89 31.7 71 21.7 55 55 E 10 17 29.95 1014 8 13 0.00 0.00
5:38 pm 17:38 Cloudy with Strong Thunderstorms 80 26.7 70 21.1 71 71 NNW 12 19 30.00 1016 2 2 0.00 0.00
5:42 pm 17:42 Cloudy with Strong Thunderstorms 76 24.4 69 20.6 79 79 WNW 16 26 30.00 1016 1 2 0.00 0.00
5:59 pm 17:59 Cloudy with Thunderstorms 72 22.2 66 18.9 82 82 NW 7 11 29.97 1015 2 2 0.40 10.16
6:17 pm 18:17 Cloudy with Thunderstorms 71 21.7 68 20 90 90 S 6 9 29.97 1015 5 8 0.03 0.76
6:59 pm 18:59 Cloudy 73 22.8 68 20 84 84 S 9 15 29.97 1015 7 11 0.04 1.02
7:59 pm 19:59 Mostly Cloudy 72 22.2 68 20 87 87 Calm 29.95 1014 9 14 0.00 0.00
8:59 pm 20:59 Mostly Cloudy 71 21.7 69 20.6 94 94 Calm 29.95 1014 7 11 0.00 0.00
9:59 pm 21:59 Mostly Cloudy 73 22.8 68 20 84 84 WNW 10 17 29.97 1015 9 14 0.00 0.00
10:59 pm 22:59 Mostly Cloudy 74 23.3 70 21.1 88 88 WSW 6 9 29.97 1015 8 13 0.00 0.00
11:59 pm 23:59 Mostly Cloudy 74 23.3 69 20.6 85 85 WSW 7 11 29.96 1015 7 11 0.00 0.00

Powered by AerisWeather